This demonstration page uses our WeatherBlox Daily Observations layout. Learn more.

Left ArrowRight Arrow

39.51506, -84.39828

Hourly Observations for April 21, 2017

Temp ( °F °C ) Dew Point ( °F °C ) Humidity (%) Winds ( mph kmh ) Pressure ( in mb ) Visibility ( mi km ) Precip ( " mm )
12:15 am 00:15 Cloudy with Light Rain 67 19.5 61 16 80 80 W 3 6 29.88 1012 7 11 0.00 0.00
12:35 am 00:35 Mostly Cloudy 67 19.5 61 16.1 81 81 WSW 3 6 29.88 1012 10 16 0.00 0.00
12:55 am 00:55 Cloudy 67 19.5 61 16.1 81 81 WSW 3 6 29.88 1012 10 16 0.00 0.00
1:15 am 01:15 Cloudy 67 19.5 61 16.2 81 81 WSW 5 7 29.88 1012 10 16 0.00 0.00
1:35 am 01:35 Cloudy 67 19.5 61 16.2 81 81 WSW 6 9 29.91 1013 10 16 0.00 0.00
1:55 am 01:55 Cloudy 66 18.8 57 13.8 73 73 WNW 8 13 29.91 1013 10 16 0.00 0.00
2:15 am 02:15 Cloudy 63 17.2 54 12.1 72 72 NW 9 15 29.91 1013 10 16 0.00 0.00
2:35 am 02:35 Cloudy 62 16.5 52 11.1 71 71 NW 9 15 29.91 1013 10 16 0.00 0.00
2:55 am 02:55 Cloudy 61 16 52 11.1 73 73 NNW 6 9 29.91 1013 10 16 0.00 0.00
3:15 am 03:15 Cloudy 60 15.3 49 9.5 69 69 NW 10 17 29.91 1013 10 16 0.00 0.00
3:35 am 03:35 Cloudy 60 15.3 48 8.8 65 65 WNW 10 17 29.91 1013 10 16 0.00 0.00
3:55 am 03:55 Cloudy 57 14 46 7.5 65 65 WNW 7 11 29.97 1015 10 16 0.00 0.00
4:15 am 04:15 Cloudy 57 13.8 45 7.1 64 64 NW 5 7 29.97 1015 10 16 0.00 0.00
4:35 am 04:35 Cloudy 57 13.8 44 6.6 62 62 WNW 6 9 29.97 1015 10 16 0.00 0.00
4:55 am 04:55 Partly Cloudy 56 13.1 44 6.8 66 66 Calm 29.97 1015 10 16 0.00 0.00
5:15 am 05:15 Clear 55 12.5 44 6.6 68 68 W 3 6 29.97 1015 10 16 0.00 0.00
5:35 am 05:35 Clear 55 12.5 43 6.1 65 65 Calm 29.97 1015 10 16 0.00 0.00
5:55 am 05:55 Clear 55 12.5 43 6.2 66 66 Calm 29.97 1015 10 16 0.00 0.00
6:15 am 06:15 Clear 55 12.5 43 6.1 65 65 Calm 30.00 1016 10 16 0.00 0.00
6:35 am 06:35 Clear 55 12.5 43 6.2 66 66 Calm 30.00 1016 10 16 0.00 0.00
6:55 am 06:55 Sunny 54 12.4 44 6.5 68 68 Calm 30.00 1016 10 16 0.00 0.00
7:15 am 07:15 Sunny 52 11 42 5.6 70 70 Calm 30.00 1016 10 16 0.00 0.00
7:35 am 07:35 Sunny 54 12.4 45 7.2 71 71 Calm 30.03 1017 10 16 0.00 0.00
7:55 am 07:55 Sunny 55 12.5 45 7.1 70 70 Calm 30.03 1017 10 16 0.00 0.00
8:15 am 08:15 Sunny 55 12.5 43 5.9 64 64 WNW 5 7 30.03 1017 10 16 0.00 0.00
8:35 am 08:35 Sunny 55 12.5 42 5.4 62 62 NW 6 9 30.03 1017 10 16 0.00 0.00
8:55 am 08:55 Sunny 55 12.5 41 5.2 61 61 W 8 13 30.03 1017 10 16 0.00 0.00
9:15 am 09:15 Sunny 55 12.5 41 5.2 61 61 WNW 7 11 30.03 1017 10 16 0.00 0.00
9:35 am 09:35 Sunny 55 12.5 41 5 61 61 WNW 8 13 30.03 1017 10 16 0.00 0.00
9:55 am 09:55 Sunny 56 13.3 42 5.6 60 60 W 8 13 30.06 1018 10 16 0.00 0.00
10:15 am 10:15 Sunny 57 13.8 42 5.6 58 58 W 8 13 30.06 1018 10 16 0.00 0.00
10:35 am 10:35 Partly Cloudy 57 13.8 42 5.6 58 58 WNW 7 11 30.06 1018 10 16 0.00 0.00
10:55 am 10:55 Sunny 57 13.8 42 5.6 58 58 W 6 9 30.06 1018 10 16 0.00 0.00
11:15 am 11:15 Partly Cloudy 57 13.8 42 5.6 58 58 WNW 7 11 30.06 1018 10 16 0.00 0.00
11:35 am 11:35 Partly Cloudy 57 13.8 42 5.8 59 59 NW 7 11 30.06 1018 10 16 0.00 0.00
11:55 am 11:55 Partly Cloudy 57 13.8 42 5.7 58 58 W 9 15 30.06 1018 10 16 0.00 0.00
12:15 pm 12:15 Partly Cloudy 57 13.8 42 5.5 58 58 WNW 9 15 30.06 1018 10 16 0.00 0.00
12:35 pm 12:35 Mostly Cloudy 57 13.8 42 5.4 57 57 W 6 9 30.06 1018 10 16 0.00 0.00
12:55 pm 12:55 Partly Cloudy 57 14 42 5.4 56 56 NW 7 11 30.06 1018 10 16 0.00 0.00
1:15 pm 13:15 Partly Cloudy 60 15.3 43 6.2 55 55 W 7 11 30.06 1018 10 16 0.00 0.00
1:35 pm 13:35 Sunny 58 14.7 42 5.8 55 55 W 7 11 30.03 1017 10 16 0.00 0.00
1:55 pm 13:55 Sunny 58 14.6 42 5.5 55 55 NNW 5 7 30.03 1017 10 16 0.00 0.00
2:15 pm 14:15 Sunny 59 15.1 42 5.8 54 54 Calm 30.03 1017 10 16 0.00 0.00
2:35 pm 14:35 Sunny 60 15.3 42 5.8 53 53 NW 5 7 30.03 1017 10 16 0.00 0.00
2:55 pm 14:55 Sunny 60 15.3 42 5.6 53 53 NNW 5 7 29.97 1015 10 16 0.00 0.00
3:15 pm 15:15 Sunny 60 15.3 42 5.4 52 52 N 3 6 29.97 1015 10 16 0.00 0.00
3:35 pm 15:35 Sunny 60 15.3 42 5.3 52 52 NNW 7 11 29.97 1015 10 16 0.00 0.00
3:55 pm 15:55 Partly Cloudy 60 15.3 42 5.4 52 52 W 7 11 29.97 1015 10 16 0.00 0.00
4:15 pm 16:15 Partly Cloudy 60 15.3 41 5.1 51 51 Calm 29.97 1015 10 16 0.00 0.00
4:35 pm 16:35 Sunny 60 15.3 41 5.1 51 51 NNW 5 7 29.97 1015 10 16 0.00 0.00
4:55 pm 16:55 Sunny 61 16 42 5.4 50 50 N 3 6 29.97 1015 10 16 0.00 0.00
5:15 pm 17:15 Sunny 61 16.2 42 5.3 49 49 NW 3 6 29.97 1015 10 16 0.00 0.00
5:35 pm 17:35 Partly Cloudy 62 16.5 41 5.2 47 47 NNW 5 7 29.97 1015 10 16 0.00 0.00
5:55 pm 17:55 Partly Cloudy 61 16.2 40 4.4 46 46 N 9 15 29.97 1015 10 16 0.00 0.00
6:20 pm 18:20 Mostly Cloudy 61 16 39 4.1 45 45 NNW 6 9 29.97 1015 10 16 0.00 0.00
6:35 pm 18:35 Mostly Cloudy 61 15.9 40 4.6 47 47 NW 7 11 29.97 1015 10 16 0.00 0.00
6:55 pm 18:55 Mostly Cloudy 60 15.3 40 4.2 48 48 NNW 7 11 29.97 1015 10 16 0.00 0.00
7:15 pm 19:15 Cloudy 60 15.3 40 4.5 49 49 N 8 13 29.97 1015 10 16 0.00 0.00
7:35 pm 19:35 Cloudy 60 15.3 40 4.7 49 49 NNW 6 9 29.97 1015 10 16 0.00 0.00
7:55 pm 19:55 Cloudy 60 15.3 41 4.8 50 50 NNW 9 15 30.03 1017 10 16 0.00 0.00
8:15 pm 20:15 Mostly Cloudy 57 14.1 39 3.9 51 51 N 8 13 30.03 1017 10 16 0.00 0.00
8:35 pm 20:35 Mostly Cloudy 57 13.8 39 4 52 52 NNW 13 20 30.03 1017 10 16 0.00 0.00
9:00 pm 21:00 Cloudy 55 12.5 38 3.6 55 55 N 12 19 30.03 1017 10 16 0.00 0.00
9:15 pm 21:15 Cloudy 55 12.5 39 3.8 56 56 N 7 11 30.03 1017 10 16 0.00 0.00
9:35 pm 21:35 Cloudy with Light Rain 55 12.5 40 4.5 58 58 N 7 11 30.03 1017 10 16 0.00 0.00
9:55 pm 21:55 Cloudy 55 12.5 39 4.1 57 57 N 5 7 30.06 1018 10 16 0.00 0.00
10:15 pm 22:15 Cloudy with Drizzle 55 12.5 39 4.1 57 57 N 10 17 30.03 1017 10 16 0.00 0.00
10:35 pm 22:35 Cloudy with Light Rain 55 12.5 40 4.5 58 58 N 9 15 30.06 1018 10 16 0.00 0.00
10:55 pm 22:55 Cloudy 55 12.5 40 4.6 59 59 N 7 11 30.06 1018 10 16 0.00 0.00
11:15 pm 23:15 Cloudy 55 12.5 39 4.1 57 57 N 8 13 30.06 1018 10 16 0.00 0.00
11:35 pm 23:35 Cloudy 55 12.5 39 4.1 57 57 N 7 11 30.03 1017 10 16 0.00 0.00
11:55 pm 23:55 Cloudy 55 12.5 40 4.2 57 57 N 7 11 30.06 1018 10 16 0.00 0.00

Powered by AerisWeather